User: anonymous   Login
Location: Theydon Bois
(51.6750°N, 0.1050°E)
Time: 21:22:54
(UTC+00:00)
Language:

Meteor 2-1 Rocket - Orbit

View from above orbital plane
View from above orbital plane
View from above satellite
View from above satellite

Ground track
Ground track

The orbit data is extracted from the following two-line orbital elements,

1  8027U 75064B   18051.81591478 +.00000104 +00000-0 +54331-4 0  9992
2  8027 081.3002 176.2144 0053547 283.8660 075.6556 14.07325360187185
Epoch (UTC): 20 February 2018 19:34:55
Eccentricity: 0.0053547
inclination: 81.3002°
perigee height: 830 km
apogee height: 907 km
right ascension of ascending node: 176.2144°
argument of perigee: 283.8660°
revolutions per day: 14.07325360
mean anomaly at epoch: 75.6556°
orbit number at epoch: 18718

The dashed part of the orbit path shows where the satellite is in the earth's shadow,  

DLR